| time (UTC) | temp F | wind direction | speed knots | gust knots | rain 1hr in | rain 24hr in | rain mn in | humidity % | barometer mb |
| 20260505050838 | 60 | 137 | 0.0 | 0.0 | 0.00 | 0.00 | 0.00 | 86 | 1011.1 |
| 20260505050321 | 60 | 137 | 0.0 | 0.0 | 0.00 | 0.00 | 0.00 | 86 | 1011.2 |
| 20260505041320 | 61 | 137 | 0.0 | 0.0 | 0.00 | 0.00 | 0.00 | 83 | 1011.8 |
| 20260505040844 | 62 | 137 | 0.0 | 0.0 | 0.00 | 0.00 | 0.00 | 83 | 1011.8 |
| 20260505040326 | 62 | 137 | 0.0 | 0.0 | 0.00 | 0.00 | 0.00 | 83 | 1011.9 |
| 20260505035810 | 62 | 137 | 0.0 | 0.0 | 0.00 | 0.00 | 0.00 | 82 | 1011.9 |
| 20260505035314 | 62 | 137 | 0.0 | 0.0 | 0.00 | 0.00 | 0.00 | 81 | 1011.9 |
| 20260505034818 | 62 | 137 | 0.0 | 0.0 | 0.00 | 0.00 | 0.00 | 81 | 1011.7 |
| 20260505034320 | 63 | 137 | 0.0 | 0.0 | 0.00 | 0.00 | 0.00 | 80 | 1011.7 |
| 20260505033824 | 63 | 137 | 0.0 | 0.0 | 0.00 | 0.00 | 0.00 | 80 | 1011.7 |
| 20260505033346 | 63 | 137 | 0.0 | 0.0 | 0.00 | 0.00 | 0.00 | 79 | 1011.6 |
| 20260505032828 | 63 | 137 | 0.0 | 0.0 | 0.00 | 0.00 | 0.00 | 78 | 1011.6 |
| 20260505032313 | 63 | 137 | 0.0 | 0.0 | 0.00 | 0.00 | 0.00 | 78 | 1011.6 |
| 20260505031816 | 63 | 137 | 0.0 | 0.0 | 0.00 | 0.00 | 0.00 | 78 | 1011.7 |
| 20260505031319 | 63 | 137 | 0.0 | 0.0 | 0.00 | 0.00 | 0.00 | 77 | 1011.7 |
| 20260505030827 | 64 | 137 | 0.0 | 0.9 | 0.00 | 0.00 | 0.00 | 77 | 1011.7 |
| 20260505030310 | 64 | 137 | 0.0 | 1.7 | 0.00 | 0.00 | 0.00 | 77 | 1011.8 |
| 20260505025814 | 64 | 137 | 0.0 | 0.0 | 0.00 | 0.00 | 0.00 | 77 | 1011.8 |
| 20260505025318 | 64 | 137 | 0.0 | 0.0 | 0.00 | 0.00 | 0.00 | 77 | 1011.8 |
| 20260505024822 | 64 | 137 | 0.0 | 0.0 | 0.00 | 0.00 | 0.00 | 76 | 1011.8 |
| 20260505024345 | 64 | 137 | 0.0 | 0.9 | 0.00 | 0.00 | 0.00 | 76 | 1011.8 |
| 20260505023829 | 64 | 137 | 0.0 | 0.9 | 0.00 | 0.00 | 0.00 | 75 | 1011.8 |
| 20260505023333 | 64 | 178 | 0.0 | 0.0 | 0.00 | 0.00 | 0.00 | 75 | 1011.6 |
| 20260505022835 | 65 | 178 | 0.0 | 0.0 | 0.00 | 0.00 | 0.00 | 74 | 1011.6 |
| 20260505022317 | 65 | 178 | 0.0 | 0.0 | 0.00 | 0.00 | 0.00 | 74 | 1011.6 |
| 20260505021843 | 65 | 178 | 0.0 | 0.0 | 0.00 | 0.00 | 0.00 | 74 | 1011.7 |
| 20260505021325 | 65 | 178 | 0.0 | 0.0 | 0.00 | 0.00 | 0.00 | 72 | 1011.7 |
| 20260505020811 | 66 | 178 | 0.0 | 0.0 | 0.00 | 0.00 | 0.00 | 69 | 1011.7 |
| 20260505020314 | 66 | 178 | 0.0 | 0.0 | 0.00 | 0.00 | 0.00 | 69 | 1011.5 |
| 20260505015817 | 66 | 178 | 0.0 | 0.0 | 0.00 | 0.00 | 0.00 | 69 | 1011.5 |
| 20260505015341 | 67 | 178 | 0.0 | 0.0 | 0.00 | 0.00 | 0.00 | 69 | 1011.5 |
| 20260505014808 | 67 | 178 | 0.0 | 0.0 | 0.00 | 0.00 | 0.00 | 69 | 1011.2 |
| 20260505014312 | 67 | 178 | 0.0 | 0.0 | 0.00 | 0.00 | 0.00 | 69 | 1011.2 |
| 20260505013816 | 67 | 178 | 0.0 | 0.0 | 0.00 | 0.00 | 0.00 | 68 | 1011.2 |
| 20260505013319 | 67 | 178 | 0.0 | 0.0 | 0.00 | 0.00 | 0.00 | 68 | 1011.5 |
| 20260505012822 | 68 | 178 | 0.0 | 0.0 | 0.00 | 0.00 | 0.00 | 67 | 1011.5 |
| 20260505012325 | 68 | 178 | 0.0 | 0.0 | 0.00 | 0.00 | 0.00 | 66 | 1011.5 |
| 20260505011830 | 68 | 178 | 0.0 | 0.0 | 0.00 | 0.00 | 0.00 | 66 | 1011.3 |
| 20260505011335 | 69 | 178 | 0.0 | 0.0 | 0.00 | 0.00 | 0.00 | 65 | 1011.3 |
| 20260505010817 | 69 | 178 | 0.0 | 0.0 | 0.00 | 0.00 | 0.00 | 64 | 1011.3 |
| 20260505010320 | 69 | 178 | 0.0 | 0.0 | 0.00 | 0.00 | 0.00 | 62 | 1011.5 |
| 20260505005843 | 69 | 178 | 0.0 | 0.0 | 0.00 | 0.00 | 0.00 | 62 | 1011.5 |
| 20260505005346 | 70 | 178 | 0.0 | 0.0 | 0.00 | 0.00 | 0.00 | 61 | 1011.5 |
| 20260505004849 | 70 | 178 | 0.0 | 1.7 | 0.00 | 0.00 | 0.00 | 60 | 1011.5 |
| 20260505004310 | 70 | 178 | 0.0 | 1.7 | 0.00 | 0.00 | 0.00 | 59 | 1011.5 |
| 20260505003834 | 71 | 178 | 0.0 | 0.9 | 0.00 | 0.00 | 0.00 | 58 | 1011.5 |
| 20260505003317 | 71 | 178 | 0.0 | 1.7 | 0.00 | 0.00 | 0.00 | 57 | 1011.7 |
| 20260505002824 | 71 | 178 | 0.0 | 1.7 | 0.00 | 0.00 | 0.00 | 56 | 1011.7 |
| 20260505002310 | 72 | 160 | 0.0 | 0.9 | 0.00 | 0.00 | 0.00 | 56 | 1011.7 |
| 20260505001833 | 72 | 160 | 0.0 | 1.7 | 0.00 | 0.00 | 0.00 | 55 | 1011.6 |
| 20260505001315 | 73 | 198 | 0.0 | 1.7 | 0.00 | 0.00 | 0.00 | 54 | 1011.6 |
| 20260505000819 | 73 | 174 | 0.0 | 1.7 | 0.00 | 0.00 | 0.00 | 53 | 1011.6 |
| 20260505000321 | 73 | 149 | 0.9 | 1.7 | 0.00 | 0.00 | 0.00 | 53 | 1011.6 |
| 20260504235824 | 74 | 147 | 0.0 | 1.7 | 0.00 | 0.00 | 0.00 | 53 | 1011.6 |
| 20260504235328 | 74 | 171 | 0.0 | 1.7 | 0.00 | 0.00 | 0.00 | 52 | 1011.6 |
| 20260504234811 | 74 | 155 | 0.0 | 1.7 | 0.00 | 0.00 | 0.00 | 50 | 1011.9 |
| 20260504234316 | 74 | 162 | 0.0 | 1.7 | 0.00 | 0.00 | 0.00 | 50 | 1011.9 |
| 20260504233819 | 74 | 165 | 0.0 | 1.7 | 0.00 | 0.00 | 0.00 | 49 | 1011.9 |
| 20260504233323 | 74 | 166 | 0.9 | 2.6 | 0.00 | 0.00 | 0.00 | 49 | 1011.9 |
| 20260504232811 | 75 | 176 | 0.9 | 2.6 | 0.00 | 0.00 | 0.00 | 48 | 1011.9 |
| 20260504232317 | 75 | 159 | 0.0 | 2.6 | 0.00 | 0.00 | 0.00 | 48 | 1011.9 |
| 20260504231820 | 75 | 145 | 0.0 | 3.5 | 0.00 | 0.00 | 0.00 | 48 | 1012.1 |
| 20260504231324 | 75 | 211 | 0.9 | 3.5 | 0.00 | 0.00 | 0.00 | 48 | 1012.1 |
| 20260504230827 | 75 | 173 | 0.9 | 2.6 | 0.00 | 0.00 | 0.00 | 47 | 1012.1 |
| 20260504230309 | 75 | 169 | 0.9 | 2.6 | 0.00 | 0.00 | 0.00 | 47 | 1012.1 |
| 20260504225815 | 75 | 190 | 0.9 | 3.5 | 0.00 | 0.00 | 0.00 | 47 | 1012.1 |
| 20260504225318 | 75 | 168 | 1.7 | 3.5 | 0.00 | 0.00 | 0.00 | 46 | 1012.1 |
| 20260504224822 | 75 | 157 | 1.7 | 3.5 | 0.00 | 0.00 | 0.00 | 46 | 1012.2 |
| 20260504224346 | 75 | 153 | 0.9 | 4.3 | 0.00 | 0.00 | 0.00 | 46 | 1012.2 |
| 20260504223849 | 75 | 184 | 1.7 | 7.8 | 0.00 | 0.00 | 0.00 | 49 | 1012.2 |
| 20260504223310 | 75 | 122 | 3.5 | 7.8 | 0.00 | 0.00 | 0.00 | 49 | 1012.2 |
| 20260504222819 | 75 | 130 | 1.7 | 4.3 | 0.00 | 0.00 | 0.00 | 46 | 1012.2 |
| 20260504222321 | 75 | 130 | 0.0 | 2.6 | 0.00 | 0.00 | 0.00 | 47 | 1012.2 |
| 20260504221824 | 75 | 171 | 0.9 | 3.5 | 0.00 | 0.00 | 0.00 | 47 | 1012.6 |
| 20260504221328 | 75 | 153 | 0.9 | 6.1 | 0.00 | 0.00 | 0.00 | 48 | 1012.6 |
| 20260504220831 | 75 | 115 | 0.9 | 6.1 | 0.00 | 0.00 | 0.00 | 47 | 1012.6 |
| 20260504220313 | 75 | 126 | 0.9 | 5.2 | 0.00 | 0.00 | 0.00 | 47 | 1012.7 |
| 20260504215815 | 75 | 159 | 2.6 | 5.2 | 0.00 | 0.00 | 0.00 | 45 | 1012.7 |
| 20260504215318 | 76 | 146 | 0.9 | 5.2 | 0.00 | 0.00 | 0.00 | 46 | 1012.7 |
| 20260504214822 | 76 | 208 | 1.7 | 5.2 | 0.00 | 0.00 | 0.00 | 46 | 1012.6 |
| 20260504214345 | 76 | 146 | 1.7 | 4.3 | 0.00 | 0.00 | 0.00 | 46 | 1012.6 |
| 20260504213828 | 76 | 161 | 1.7 | 5.2 | 0.00 | 0.00 | 0.00 | 45 | 1012.6 |
| 20260504213312 | 76 | 142 | 2.6 | 5.2 | 0.00 | 0.00 | 0.00 | 45 | 1012.7 |
| 20260504212836 | 76 | 113 | 1.7 | 3.5 | 0.00 | 0.00 | 0.00 | 45 | 1012.7 |
| 20260504212319 | 76 | 176 | 0.9 | 3.5 | 0.00 | 0.00 | 0.00 | 45 | 1012.7 |
| 20260504211808 | 76 | 220 | 0.9 | 3.5 | 0.00 | 0.00 | 0.00 | 45 | 1012.7 |
| 20260504211311 | 76 | 171 | 0.0 | 3.5 | 0.00 | 0.00 | 0.00 | 45 | 1012.7 |
| 20260504210817 | 76 | 134 | 1.7 | 7.0 | 0.00 | 0.00 | 0.00 | 44 | 1012.7 |
| 20260504210320 | 76 | 171 | 4.3 | 7.0 | 0.00 | 0.00 | 0.00 | 44 | 1012.8 |
| 20260504205823 | 76 | 150 | 1.7 | 5.2 | 0.00 | 0.00 | 0.00 | 43 | 1012.8 |
| 20260504205326 | 76 | 165 | 1.7 | 5.2 | 0.00 | 0.00 | 0.00 | 43 | 1012.8 |
| 20260504204808 | 76 | 154 | 1.7 | 4.3 | 0.00 | 0.00 | 0.00 | 43 | 1013.2 |
| 20260504204312 | 76 | 166 | 0.9 | 3.5 | 0.00 | 0.00 | 0.00 | 44 | 1013.2 |
| 20260504203815 | 76 | 111 | 1.7 | 4.3 | 0.00 | 0.00 | 0.00 | 44 | 1013.2 |
| 20260504203322 | 76 | 110 | 0.9 | 4.3 | 0.00 | 0.00 | 0.00 | 43 | 1013.3 |
| 20260504202809 | 75 | 154 | 0.9 | 2.6 | 0.00 | 0.00 | 0.00 | 43 | 1013.3 |
| 20260504202314 | 76 | 175 | 1.7 | 3.5 | 0.00 | 0.00 | 0.00 | 42 | 1013.3 |
| 20260504201818 | 76 | 192 | 0.9 | 3.5 | 0.00 | 0.00 | 0.00 | 40 | 1013.8 |
| 20260504201320 | 76 | 163 | 1.7 | 3.5 | 0.00 | 0.00 | 0.00 | 41 | 1013.8 |
| 20260504200823 | 76 | 165 | 0.9 | 2.6 | 0.00 | 0.00 | 0.00 | 41 | 1013.8 |
| 20260504200306 | 76 | 173 | 0.9 | 4.3 | 0.00 | 0.00 | 0.00 | 40 | 1014.1 |
| 20260504195813 | 76 | 158 | 0.9 | 4.3 | 0.00 | 0.00 | 0.00 | 40 | 1014.1 |
| 20260504195316 | 76 | 126 | 0.9 | 4.3 | 0.00 | 0.00 | 0.00 | 42 | 1014.1 |
| 20260504194819 | 76 | 210 | 0.0 | 4.3 | 0.00 | 0.00 | 0.00 | 41 | 1014.3 |
| 20260504194322 | 76 | 192 | 0.9 | 4.3 | 0.00 | 0.00 | 0.00 | 41 | 1014.3 |
| 20260504193825 | 76 | 202 | 0.0 | 3.5 | 0.00 | 0.00 | 0.00 | 40 | 1014.3 |
| 20260504193312 | 77 | 149 | 0.9 | 3.5 | 0.00 | 0.00 | 0.00 | 41 | 1014.3 |
| 20260504192819 | 77 | 157 | 1.7 | 3.5 | 0.00 | 0.00 | 0.00 | 41 | 1014.3 |
| 20260504192323 | 77 | 196 | 0.9 | 1.7 | 0.00 | 0.00 | 0.00 | 40 | 1014.3 |
| 20260504191809 | 77 | 333 | 0.0 | 5.2 | 0.00 | 0.00 | 0.00 | 42 | 1014.3 |
| 20260504191333 | 76 | 28 | 1.7 | 5.2 | 0.00 | 0.00 | 0.00 | 43 | 1014.3 |
| 20260504190816 | 76 | 174 | 1.7 | 3.5 | 0.00 | 0.00 | 0.00 | 42 | 1014.3 |
| 20260504190317 | 76 | 167 | 1.7 | 3.5 | 0.00 | 0.00 | 0.00 | 42 | 1014.6 |
| 20260504185842 | 76 | 164 | 0.9 | 5.2 | 0.00 | 0.00 | 0.00 | 42 | 1014.6 |
| 20260504185323 | 76 | 163 | 1.7 | 5.2 | 0.00 | 0.00 | 0.00 | 41 | 1014.6 |
| 20260504184827 | 76 | 201 | 0.9 | 2.6 | 0.00 | 0.00 | 0.00 | 41 | 1014.8 |
| 20260504184309 | 76 | 111 | 1.7 | 3.5 | 0.00 | 0.00 | 0.00 | 42 | 1014.8 |
| 20260504183812 | 76 | 200 | 0.0 | 3.5 | 0.00 | 0.00 | 0.00 | 41 | 1014.8 |
| 20260504183335 | 75 | 231 | 0.0 | 4.3 | 0.00 | 0.00 | 0.00 | 41 | 1014.9 |
| 20260504182818 | 75 | 182 | 1.7 | 5.2 | 0.00 | 0.00 | 0.00 | 40 | 1014.9 |
| 20260504182325 | 76 | 138 | 1.7 | 5.2 | 0.00 | 0.00 | 0.00 | 42 | 1014.9 |
| 20260504181809 | 76 | 153 | 0.9 | 4.3 | 0.00 | 0.00 | 0.00 | 40 | 1015.2 |
| 20260504181313 | 76 | 123 | 2.6 | 4.3 | 0.00 | 0.00 | 0.00 | 40 | 1015.2 |
| 20260504180817 | 75 | 164 | 0.9 | 2.6 | 0.00 | 0.00 | 0.00 | 43 | 1015.2 |
| 20260504180320 | 75 | 175 | 1.7 | 2.6 | 0.00 | 0.00 | 0.00 | 42 | 1015.2 |
| 20260504175823 | 75 | 204 | 0.9 | 2.6 | 0.00 | 0.00 | 0.00 | 40 | 1015.2 |
| 20260504175327 | 76 | 159 | 0.9 | 4.3 | 0.00 | 0.00 | 0.00 | 42 | 1015.2 |
| 20260504174810 | 76 | 163 | 0.9 | 4.3 | 0.00 | 0.00 | 0.00 | 44 | 1015.3 |
| 20260504174313 | 75 | 130 | 0.0 | 2.6 | 0.00 | 0.00 | 0.00 | 41 | 1015.3 |
| 20260504173816 | 75 | 174 | 0.0 | 2.6 | 0.00 | 0.00 | 0.00 | 43 | 1015.3 |
| 20260504173339 | 75 | 186 | 0.9 | 2.6 | 0.00 | 0.00 | 0.00 | 43 | 1015.2 |
| 20260504172841 | 75 | 200 | 0.0 | 2.6 | 0.00 | 0.00 | 0.00 | 43 | 1015.2 |
| 20260504172324 | 75 | 210 | 0.9 | 2.6 | 0.00 | 0.00 | 0.00 | 43 | 1015.2 |
| 20260504171811 | 75 | 139 | 0.9 | 3.5 | 0.00 | 0.00 | 0.00 | 45 | 1015.4 |
| 20260504171315 | 75 | 175 | 0.9 | 3.5 | 0.00 | 0.00 | 0.00 | 44 | 1015.4 |
| 20260504170819 | 74 | 151 | 1.7 | 2.6 | 0.00 | 0.00 | 0.00 | 45 | 1015.4 |
| 20260504170323 | 75 | 242 | 0.0 | 6.1 | 0.00 | 0.00 | 0.00 | 43 | 1015.2 |
| 20260504160325 | 75 | 166 | 0.9 | 4.3 | 0.00 | 0.00 | 0.00 | 42 | 1015.8 |
| 20260504150824 | 74 | 133 | 1.7 | 4.3 | 0.00 | 0.00 | 0.00 | 50 | 1015.8 |
| 20260504150328 | 74 | 200 | 0.9 | 3.5 | 0.00 | 0.00 | 0.00 | 46 | 1015.8 |
| 20260504141323 | 72 | 215 | 0.0 | 0.0 | 0.00 | 0.00 | 0.00 | 56 | 1015.8 |
| 20260504140847 | 71 | 215 | 0.0 | 0.0 | 0.00 | 0.00 | 0.00 | 58 | 1015.8 |
| 20260504140310 | 71 | 215 | 0.0 | 1.7 | 0.00 | 0.00 | 0.00 | 55 | 1015.8 |
| 20260504130326 | 66 | 49 | 0.0 | 0.0 | 0.00 | 0.00 | 0.00 | 74 | 1015.9 |
| 20260504120315 | 55 | 49 | 0.0 | 0.0 | 0.00 | 0.00 | 0.00 | 91 | 1015.2 |
| 20260504110313 | 53 | 49 | 0.0 | 0.0 | 0.00 | 0.00 | 0.00 | 91 | 1015.0 |
| 20260504100319 | 53 | 49 | 0.0 | 0.0 | 0.00 | 0.00 | 0.00 | 91 | 1015.4 |
| 20260504081838 | 54 | 314 | 0.0 | 0.0 | 0.00 | 0.00 | 0.00 | 89 | 1015.2 |
| 20260504081320 | 54 | 314 | 0.0 | 0.0 | 0.00 | 0.00 | 0.00 | 90 | 1015.2 |
| 20260504080822 | 54 | 314 | 0.0 | 0.0 | 0.00 | 0.00 | 0.00 | 89 | 1015.2 |
| 20260504080326 | 54 | 314 | 0.0 | 0.0 | 0.00 | 0.00 | 0.00 | 89 | 1015.3 |
| 20260504070348 | 55 | 314 | 0.0 | 0.0 | 0.00 | 0.00 | 0.00 | 88 | 1015.9 |